Location: Bushrod
(6.3500°N, 10.7833°W)
Time: 13:41:50
(UTC+00:00)

Cosmos 1975 - Pass Details

Date: 17 September 2019
Orbit: 543 x 561 km, 82.5° (Epoch: 21 October)

Event Time Altitude Azimuth Distance (km) Brightness Sun altitude
Rises 18:58:13 0° 188° (S) 2,701 6.4 -4.9°
Reaches altitude 10° 19:00:22 10° 190° (S) 1,806 5.6 -5.4°
Maximum altitude 19:04:19 70° 274° (W) 580 3.2 -6.4°
Drops below altitude 10° 19:08:16 10° 358° (N) 1,801 5.5 -7.4°
Sets 19:10:25 0° 0° (N) 2,691 6.4 -7.9°
